�N����,����,�~����,�C��,���x,�C��,����,���ϕ���,�ő�u�ԕ���,�ő厞����,���˗�,�I�_���x,�n�����x,�ő啗���N��,DTYPE
"21/03/15","00:10",0.0,4.0,89.1,1012.3,303.9,1.8,2.9,324.7,0.00,2.4,130.0,"00:03:28",1
"21/03/15","00:20",0.0,3.8,89.4,1012.3,295.8,1.6,2.4,316.9,0.00,2.3,130.0,"00:10:24",1
"21/03/15","00:30",0.0,3.8,89.7,1012.3,298.5,1.6,2.6,316.1,0.00,2.3,130.0,"00:23:28",1
"21/03/15","00:40",0.0,3.7,89.9,1012.3,292.1,1.3,2.6,314.7,0.00,2.2,130.0,"00:37:44",1
"21/03/15","00:50",0.0,3.7,90.2,1012.1,292.8,1.7,3.5,329.7,0.00,2.3,130.0,"00:43:52",1
"21/03/15","01:00",0.0,3.7,90.4,1012.1,290.1,1.7,3.5,310.0,0.00,2.3,130.0,"00:50:02",1
"21/03/15","01:10",0.0,3.5,90.6,1012.1,296.7,1.6,3.5,323.4,0.00,2.1,130.0,"01:00:32",1
"21/03/15","01:20",0.0,3.5,90.9,1012.3,288.9,2.0,2.7,313.5,0.00,2.2,130.0,"01:14:08",1
"21/03/15","01:30",0.0,3.7,91.1,1012.6,296.8,2.2,3.1,322.8,0.00,2.4,130.0,"01:28:48",1
"21/03/15","01:40",0.0,3.8,91.5,1012.3,307.2,2.7,3.9,317.9,0.00,2.6,130.0,"01:34:56",1
"21/03/15","01:50",0.0,3.7,91.6,1012.8,290.7,2.1,2.6,299.1,0.00,2.5,130.0,"01:46:16",1
"21/03/15","02:00",0.0,3.6,91.9,1012.6,298.2,1.6,2.6,318.5,0.00,2.4,130.0,"01:59:20",1
"21/03/15","02:10",0.0,3.5,92.1,1012.3,313.8,2.1,3.1,321.3,0.00,2.4,130.0,"02:09:04",1
"21/03/15","02:20",0.0,3.2,92.4,1012.3,304.1,2.0,2.6,314.0,0.00,2.1,130.0,"02:11:36",1
"21/03/15","02:30",0.0,3.1,92.6,1012.3,297.3,1.6,2.4,310.2,0.00,2.1,130.0,"02:20:24",1
"21/03/15","02:40",0.0,3.0,92.8,1012.1,303.9,2.0,2.7,312.7,0.00,2.0,130.0,"02:30:48",1
"21/03/15","02:50",0.0,2.9,93.0,1012.1,302.0,2.2,3.4,322.7,0.00,1.9,130.0,"02:41:44",1
"21/03/15","03:00",0.0,2.9,93.2,1012.1,289.7,1.8,2.1,304.5,0.00,2.0,130.0,"02:59:12",1
"21/03/15","03:10",0.0,3.0,93.3,1012.3,290.4,1.6,2.5,308.3,0.00,2.1,130.0,"03:04:16",1
"21/03/15","03:20",0.0,2.9,93.5,1012.3,307.0,2.0,2.6,316.5,0.00,2.0,130.0,"03:15:44",1
"21/03/15","03:30",0.0,2.8,93.6,1012.1,301.6,2.1,3.6,321.9,0.00,1.9,130.0,"03:28:24",1
"21/03/15","03:40",0.0,3.0,93.9,1012.3,316.3,1.8,2.6,327.0,0.00,2.2,130.0,"03:38:32",1
"21/03/15","03:50",0.0,3.2,94.0,1012.3,305.7,1.8,2.8,319.1,0.00,2.4,130.0,"03:45:12",1
"21/03/15","04:00",0.0,3.2,94.2,1012.1,292.8,1.1,2.2,312.4,0.00,2.4,130.0,"03:50:16",1
"21/03/15","04:10",0.0,3.3,94.3,1012.3,306.2,1.6,2.9,324.2,0.00,2.5,130.0,"04:00:56",1
"21/03/15","04:20",0.0,3.3,94.5,1012.3,310.1,1.8,2.8,301.4,0.00,2.5,130.0,"04:10:08",1
"21/03/15","04:30",0.0,3.4,94.6,1012.3,295.7,1.8,2.5,315.4,0.00,2.7,130.0,"04:25:12",1
"21/03/15","04:40",0.0,3.4,94.6,1012.3,285.4,1.5,2.5,314.8,0.00,2.7,130.0,"04:37:12",1
"21/03/15","04:50",0.0,3.3,94.8,1012.3,295.6,1.1,2.2,320.8,0.00,2.6,130.0,"04:46:56",1
"21/03/15","05:00",0.0,3.2,94.9,1012.8,296.7,1.8,3.1,319.3,0.00,2.5,130.0,"04:59:52",1
"21/03/15","05:10",0.0,3.2,95.1,1012.6,309.8,2.1,2.7,319.7,0.00,2.5,130.0,"05:07:12",1
"21/03/15","05:20",0.0,3.2,95.2,1012.8,304.1,2.1,2.8,315.2,0.00,2.5,130.0,"05:18:56",1
"21/03/15","05:30",0.0,3.1,95.3,1012.6,307.4,1.8,2.8,324.0,0.00,2.5,130.0,"05:21:20",1
"21/03/15","05:40",0.0,3.1,95.5,1012.8,295.1,1.8,2.6,310.3,0.00,2.5,130.0,"05:37:20",1
"21/03/15","05:50",0.0,3.4,95.6,1013.0,299.0,2.2,3.1,310.1,0.00,2.8,130.0,"05:44:32",1
"21/03/15","06:00",0.0,3.4,95.6,1013.3,297.0,1.6,3.1,320.1,0.00,2.8,130.0,"05:53:12",1
"21/03/15","06:10",0.0,3.3,95.7,1012.8,293.9,1.6,2.7,308.1,0.00,2.7,130.0,"06:07:12",1
"21/03/15","06:20",0.0,3.1,95.8,1013.3,300.8,1.7,2.5,317.4,0.00,2.5,130.0,"06:14:00",1
"21/03/15","06:30",0.0,3.1,96.1,1013.3,302.4,2.1,3.5,323.3,0.00,2.6,130.0,"06:22:48",1
"21/03/15","06:40",0.0,3.3,96.2,1013.5,297.2,1.5,2.6,323.3,0.00,2.8,130.0,"06:30:16",1
"21/03/15","06:50",0.0,3.6,96.3,1013.5,304.8,1.6,2.6,319.8,0.00,3.1,130.0,"06:45:28",1
"21/03/15","07:00",0.0,3.8,96.3,1013.5,272.6,1.2,1.8,310.9,0.00,3.3,130.0,"06:50:48",1
"21/03/15","07:10",0.0,4.2,96.4,1013.8,29.6,0.5,1.4,307.8,0.02,3.7,130.0,"07:00:32",1
"21/03/15","07:20",0.0,4.7,96.5,1014.0,265.8,0.7,1.6,288.3,0.03,4.2,130.0,"07:19:28",1
"21/03/15","07:30",0.0,5.3,96.4,1014.0,276.1,1.2,1.7,281.9,0.04,4.8,130.0,"07:24:24",1
"21/03/15","07:40",0.0,5.9,96.4,1014.5,279.8,1.1,1.7,315.0,0.06,5.4,130.0,"07:33:44",1
"21/03/15","07:50",0.0,6.6,96.3,1014.9,276.7,0.8,1.3,251.9,0.10,6.1,130.0,"07:43:20",1
"21/03/15","08:00",0.0,7.6,96.2,1015.2,302.7,0.8,1.7,293.0,0.12,7.1,130.0,"07:59:14",1
"21/03/15","08:10",0.0,7.9,95.7,1015.2,309.2,0.7,1.8,294.7,0.13,7.3,130.0,"08:00:58",1
"21/03/15","08:20",0.0,7.9,95.5,1015.2,180.0,0.7,1.9,135.2,0.15,7.3,130.0,"08:10:56",1
"21/03/15","08:30",0.0,8.4,95.1,1015.2,191.6,0.5,1.8,123.9,0.17,7.7,130.0,"08:20:02",1
"21/03/15","08:40",0.0,8.5,94.5,1015.6,48.5,0.8,1.7,112.5,0.20,7.7,130.0,"08:30:08",1
"21/03/15","08:50",0.0,8.9,93.6,1015.6,105.5,1.0,2.1,115.4,0.22,8.0,130.0,"08:41:20",1
"21/03/15","09:00",0.0,9.5,92.2,1015.9,83.1,0.8,1.7,111.9,0.25,8.3,130.0,"08:50:08",1
"21/03/15","09:10",0.0,10.3,89.8,1015.9,149.1,1.0,2.0,123.5,0.28,8.7,130.0,"09:08:48",1
"21/03/15","09:20",0.0,10.7,86.8,1016.4,119.8,1.0,2.0,125.8,0.31,8.6,130.0,"09:12:16",1
"21/03/15","09:30",0.0,11.9,82.8,1016.4,356.5,0.6,1.4,338.9,0.34,9.1,130.0,"09:27:44",1
"21/03/15","09:40",0.0,12.8,76.9,1016.4,354.2,0.8,2.6,359.7,0.37,8.9,130.0,"09:30:24",1
"21/03/15","09:50",0.0,13.2,71.2,1016.4,285.9,1.2,3.2,319.8,0.40,8.1,130.0,"09:48:00",1
"21/03/15","10:00",0.0,13.4,67.6,1016.4,283.0,1.6,3.5,263.2,0.42,7.6,130.0,"09:55:52",1
"21/03/15","10:10",0.0,13.2,67.4,1015.9,287.5,2.5,4.3,256.1,0.42,7.3,130.0,"10:08:24",1
"21/03/15","10:20",0.0,13.2,65.7,1015.9,302.9,3.0,6.4,339.0,0.47,7.0,130.0,"10:18:08",1
"21/03/15","10:30",0.0,13.8,62.8,1015.9,314.5,4.0,7.5,334.3,0.48,6.9,130.0,"10:25:20",1
"21/03/15","10:40",0.0,14.1,60.9,1015.6,289.8,3.1,7.0,345.5,0.50,6.7,130.0,"10:39:52",1
"21/03/15","10:50",0.0,14.4,59.2,1015.2,328.7,4.0,7.2,332.6,0.49,6.6,130.0,"10:43:52",1
"21/03/15","11:00",0.0,14.4,56.3,1015.4,320.2,4.0,8.9,337.6,0.54,5.9,130.0,"10:54:40",1
"21/03/15","11:10",0.0,15.2,53.4,1014.9,280.5,2.3,5.1,227.9,0.54,5.8,130.0,"11:09:52",1
"21/03/15","11:20",0.0,15.1,52.0,1015.4,315.8,3.5,7.2,334.9,0.54,5.4,130.0,"11:13:36",1
"21/03/15","11:30",0.0,15.7,52.7,1015.2,301.0,2.7,4.8,328.6,0.47,6.1,130.0,"11:29:20",1
"21/03/15","11:40",0.0,15.3,51.7,1014.5,294.5,3.1,7.0,337.7,0.52,5.5,130.0,"11:34:32",1
"21/03/15","11:50",0.0,15.4,48.9,1015.2,325.3,3.6,6.5,318.5,0.54,4.8,130.0,"11:44:08",1
"21/03/15","12:00",0.0,15.3,48.2,1014.7,324.4,3.5,7.0,338.3,0.57,4.5,130.0,"11:51:36",1
"21/03/15","12:10",0.0,16.1,45.4,1014.5,338.7,1.8,4.3,305.7,0.52,4.3,130.0,"12:09:10",1
"21/03/15","12:20",0.0,16.5,48.5,1014.2,291.7,2.5,5.8,336.4,0.58,5.7,130.0,"12:10:24",1
"21/03/15","12:30",0.0,16.3,43.1,1014.2,317.9,3.1,7.1,348.8,0.52,3.8,130.0,"12:25:36",1
"21/03/15","12:40",0.0,16.9,42.5,1014.0,347.8,2.6,5.6,338.3,0.56,4.1,130.0,"12:34:32",1
"21/03/15","12:50",0.0,17.1,42.0,1013.8,354.4,2.5,5.6,325.8,0.56,4.1,130.0,"12:48:08",1
"21/03/15","13:00",0.0,17.1,43.4,1013.5,335.6,3.1,6.2,339.5,0.56,4.6,130.0,"12:54:24",1
"21/03/15","13:10",0.0,16.8,41.9,1013.5,355.1,2.6,5.8,316.5,0.51,3.8,130.0,"13:04:08",1
"21/03/15","13:20",0.0,16.8,41.6,1012.8,355.2,3.4,7.4,348.1,0.54,3.7,130.0,"13:18:00",1
"21/03/15","13:30",0.0,17.1,41.8,1012.6,356.7,3.1,6.4,331.6,0.54,4.1,130.0,"13:22:08",1
"21/03/15","13:40",0.0,17.2,41.0,1012.6,352.9,2.8,6.6,337.2,0.53,3.9,130.0,"13:32:16",1
"21/03/15","13:50",0.0,17.1,41.2,1012.8,337.5,3.7,7.9,334.4,0.52,3.9,130.0,"13:44:00",1
"21/03/15","14:00",0.0,17.3,44.1,1012.8,346.2,3.1,6.5,336.0,0.50,5.0,130.0,"13:50:56",1
"21/03/15","14:10",0.0,17.4,43.4,1012.8,325.5,3.2,6.2,330.7,0.49,4.9,130.0,"14:06:08",1
"21/03/15","14:20",0.0,18.1,41.7,1012.6,356.1,1.5,4.8,8.1,0.47,4.9,130.0,"14:14:08",1
"21/03/15","14:30",0.0,18.1,43.2,1012.6,346.6,2.2,5.1,340.9,0.46,5.4,130.0,"14:29:36",1
"21/03/15","14:40",0.0,18.2,43.1,1012.6,10.7,1.8,4.4,350.5,0.44,5.5,130.0,"14:30:24",1
"21/03/15","14:50",0.0,17.9,43.9,1012.3,356.4,2.3,4.3,334.9,0.42,5.5,130.0,"14:43:12",1
"21/03/15","15:00",0.0,18.1,43.9,1012.6,8.0,1.7,4.3,357.7,0.39,5.7,130.0,"14:50:16",1
"21/03/15","15:10",0.0,17.8,43.5,1012.1,3.7,2.2,4.4,332.1,0.37,5.3,130.0,"15:05:44",1
"21/03/15","15:20",0.0,17.8,44.8,1012.3,355.5,2.2,4.1,13.5,0.35,5.7,130.0,"15:15:52",1
"21/03/15","15:30",0.0,17.4,46.8,1012.3,344.3,2.7,5.1,319.6,0.32,6.0,130.0,"15:26:40",1
"21/03/15","15:40",0.0,17.1,46.5,1012.6,337.4,3.0,4.9,336.6,0.30,5.6,130.0,"15:36:08",1
"21/03/15","15:50",0.0,16.9,46.6,1012.6,334.0,3.5,6.5,340.3,0.28,5.4,130.0,"15:46:24",1
"21/03/15","16:00",0.0,17.1,46.4,1012.3,334.7,2.8,7.1,342.0,0.25,5.6,130.0,"15:58:48",1
"21/03/15","16:10",0.0,17.2,46.7,1012.3,321.0,2.3,4.4,336.3,0.23,5.7,130.0,"16:01:04",1
"21/03/15","16:20",0.0,16.8,46.1,1011.9,336.4,2.3,7.5,340.6,0.19,5.2,130.0,"16:18:08",1
"21/03/15","16:30",0.0,16.5,48.6,1012.3,325.8,3.4,5.6,337.7,0.15,5.7,130.0,"16:20:08",1
"21/03/15","16:40",0.0,16.2,48.5,1012.1,319.8,2.7,4.7,315.7,0.08,5.4,130.0,"16:36:08",1
"21/03/15","16:50",0.0,16.0,49.2,1012.3,327.2,2.2,4.0,335.1,0.06,5.4,130.0,"16:43:28",1
"21/03/15","17:00",0.0,15.9,48.5,1012.8,321.2,2.5,4.4,333.1,0.09,5.1,130.0,"16:55:28",1
"21/03/15","17:10",0.0,16.1,48.5,1012.6,340.1,1.6,3.3,357.3,0.09,5.3,130.0,"17:08:48",1
"21/03/15","17:20",0.0,16.2,49.4,1012.6,338.1,2.0,4.1,323.7,0.09,5.6,130.0,"17:19:44",1
"21/03/15","17:30",0.0,15.4,49.9,1012.8,339.0,3.0,5.7,333.0,0.05,5.1,130.0,"17:28:16",1
"21/03/15","17:40",0.0,15.2,51.9,1012.8,342.0,1.8,3.5,339.0,0.03,5.4,130.0,"17:31:28",1
"21/03/15","17:50",0.0,14.9,52.8,1013.0,344.6,2.2,3.6,336.4,0.01,5.4,130.0,"17:42:08",1
"21/03/15","18:00",0.0,14.4,55.3,1012.8,339.6,2.2,4.3,344.9,0.00,5.6,130.0,"17:51:28",1
"21/03/15","18:10",0.0,13.8,56.9,1013.0,336.1,2.2,3.3,338.2,0.00,5.5,130.0,"18:08:58",1
"21/03/15","18:20",0.0,13.1,59.1,1012.8,332.9,2.2,3.6,344.0,0.00,5.3,130.0,"18:12:58",1
"21/03/15","18:30",0.0,12.8,60.6,1012.6,326.7,2.8,3.9,330.8,0.00,5.4,130.0,"18:25:48",1
"21/03/15","18:40",0.0,12.5,62.1,1012.3,322.6,3.1,4.2,310.0,0.00,5.5,130.0,"18:35:56",1
"21/03/15","18:50",0.0,12.0,64.0,1012.8,327.3,3.0,4.8,339.4,0.00,5.4,130.0,"18:45:14",1
"21/03/15","19:00",0.0,11.7,65.2,1012.6,305.1,2.3,3.6,323.2,0.00,5.4,130.0,"18:57:24",1
"21/03/15","19:10",0.0,11.4,65.8,1012.6,275.7,2.0,3.2,314.0,0.00,5.3,130.0,"19:08:56",1
"21/03/15","19:20",0.0,11.4,65.9,1013.0,285.4,2.3,5.0,312.2,0.00,5.3,130.0,"19:19:42",1
"21/03/15","19:30",0.0,11.2,66.7,1012.8,316.1,3.7,5.4,330.0,0.00,5.3,130.0,"19:22:48",1
"21/03/15","19:40",0.0,11.0,67.0,1012.8,317.8,3.0,5.5,321.7,0.00,5.2,130.0,"19:34:10",1
"21/03/15","19:50",0.0,10.8,67.6,1012.8,320.6,1.7,2.7,328.0,0.00,5.1,130.0,"19:40:56",1
"21/03/15","20:00",0.0,10.5,68.6,1012.8,303.7,2.2,2.8,312.0,0.00,5.0,130.0,"19:54:40",1
"21/03/15","20:10",0.0,10.1,69.5,1013.0,318.0,1.6,2.6,319.3,0.00,4.8,130.0,"20:04:00",1
"21/03/15","20:20",0.0,9.9,70.4,1013.0,320.1,1.7,2.7,323.9,0.00,4.8,130.0,"20:10:08",1
"21/03/15","20:30",0.0,9.7,71.4,1012.8,311.2,1.3,2.9,335.6,0.00,4.8,130.0,"20:23:20",1
"21/03/15","20:40",0.0,9.6,72.1,1013.0,288.5,1.3,2.8,306.6,0.00,4.9,130.0,"20:39:36",1
"21/03/15","20:50",0.0,9.3,72.6,1013.0,315.8,2.0,3.1,339.8,0.00,4.7,130.0,"20:42:08",1
"21/03/15","21:00",0.0,9.2,73.5,1012.8,314.3,2.6,3.9,317.5,0.00,4.8,130.0,"20:59:36",1
"21/03/15","21:10",0.0,9.1,74.2,1013.0,294.2,2.0,3.7,325.9,0.00,4.8,130.0,"21:00:08",1
"21/03/15","21:20",0.0,8.9,75.0,1013.0,295.5,1.8,3.7,318.9,0.00,4.8,130.0,"21:18:00",1
"21/03/15","21:30",0.0,9.0,75.4,1012.8,323.1,2.1,3.7,320.2,0.00,4.9,130.0,"21:21:20",1
"21/03/15","21:40",0.0,8.8,76.0,1012.8,320.4,3.0,3.7,326.7,0.00,4.8,130.0,"21:33:04",1
"21/03/15","21:50",0.0,8.5,76.4,1013.0,288.4,1.6,2.2,310.0,0.00,4.6,130.0,"21:40:08",1
"21/03/15","22:00",0.0,8.3,77.0,1012.6,308.1,2.2,3.3,314.8,0.00,4.5,130.0,"21:53:52",1
"21/03/15","22:10",0.0,8.1,77.9,1012.6,309.2,2.7,3.4,319.6,0.00,4.5,130.0,"22:05:28",1
"21/03/15","22:20",0.0,7.9,78.6,1012.6,283.1,1.5,4.0,313.6,0.00,4.5,130.0,"22:18:40",1
"21/03/15","22:30",0.0,7.9,79.4,1012.3,314.2,2.5,3.9,324.0,0.00,4.6,130.0,"22:25:44",1
"21/03/15","22:40",0.0,7.5,79.8,1011.9,307.6,1.6,2.5,314.5,0.00,4.3,130.0,"22:32:56",1
"21/03/15","22:50",0.0,7.5,80.6,1012.3,275.4,2.0,2.5,262.4,0.00,4.4,130.0,"22:43:44",1
"21/03/15","23:00",0.0,7.3,81.1,1012.6,325.7,2.1,2.7,320.8,0.00,4.3,130.0,"22:57:28",1
"21/03/15","23:10",0.0,6.7,81.7,1012.3,297.8,0.8,2.4,315.4,0.00,3.8,130.0,"23:00:24",1
"21/03/15","23:20",0.0,6.5,82.7,1012.1,278.9,1.6,1.9,290.3,0.00,3.8,130.0,"23:19:20",1
"21/03/15","23:30",0.0,6.7,83.5,1012.1,287.2,2.0,2.4,295.4,0.00,4.1,130.0,"23:28:32",1
"21/03/15","23:40",0.0,6.7,84.0,1012.1,301.8,2.2,2.8,315.7,0.00,4.2,130.0,"23:36:40",1
"21/03/15","23:50",0.0,6.7,84.5,1011.9,298.3,2.0,3.1,317.7,0.00,4.3,130.0,"23:47:12",1
"21/03/15","24:00",0.0,6.7,84.8,1012.1,294.7,2.1,2.5,313.4,0.00,4.4,130.0,"23:57:52",1
